Regional Weather Roundup
Issued by NWS

Home | Current Version | Previous Version | Graphics & Text | Print | Product List | Glossary On
Versions: 1 2 3 4 5 6 7 8 9 10 11 12 13 14 15 16 17 18 19 20 21 22 23 24 25 26 27 28 29 30 31 32 33 34 35 36 37 38 39 40 41 42 43 44 45 46 47 48 49 50
000
ASUS43 KDMX 301607
RWRIA

WEATHER ROUNDUP FOR IOWA
NATIONAL WEATHER SERVICE DES MOINES IA
1100 AM CDT SAT MAY 30 2015

NOTE: "FAIR" INDICATES FEW OR NO CLOUDS BELOW 12,000 FEET WITH NO
SIGNIFICANT WEATHER AND/OR OBSTRUCTIONS TO VISIBILITY.

* - THESE STATIONS ARE NOT NWS STATIONS...THUS NOT UNDER NWS
QUALITY CONTROL.  THEY ALSO DO NOT REPORT WEATHER SUCH
AS PRECIPITATION OR FOG.

IAZ001>003-012>014-020>022-031>034-043>046-301700-
   NORTHWEST IOWA

CITY           SKY/WX    TMP DP  RH WIND       PRES   REMARKS
CARROLL *      CLOUDY    54  48  82 N18G26    30.17R
CHEROKEE *     MOSUNNY   55  45  67 NE8       30.23R
DENISON *      CLOUDY    54  48  82 N16G23    30.18R
LE MARS *      PTSUNNY   54  45  71 N16G22    30.26R
ORANGE CITY *  MOSUNNY   50  43  76 N9G17     30.25R
SHELDON *      PTSUNNY   52  45  76 N16       30.24R
SIOUX CITY     MOSUNNY   56  42  59 NE15      30.24R
SPENCER        PTSUNNY   55  43  63 N18       30.22R
STORM LAKE *   MOSUNNY   55  45  67 N16G24    30.21R
$$

IAZ055>058-069>071-079>083-090>094-301700-
   SOUTHWEST IOWA

CITY           SKY/WX    TMP DP  RH WIND       PRES   REMARKS
ATLANTIC *     CLOUDY    54  50  87 N17G23    30.16R
AUDUBON *      CLOUDY    54  48  82 N18       30.17S
CLARINDA *     CLOUDY    55  52  88 N16G22    30.16R
COUNCIL BLFS * CLOUDY    54  52  94 N20       30.18R
CRESTON *      CLOUDY    54  54 100 N15G22    30.12R
HARLAN  *      CLOUDY    54  54 100 N15G21    30.21R
LAMONI         CLOUDY    60  54  80 N14       30.09R
RED OAK *      CLOUDY    55  50  82 N21       30.16R
SHENANDOAH *   CLOUDY    55  50  82 N16G22    30.17R
$$

IAZ047>049-059>061-072>074-084-301700-
   CENTRAL IOWA

CITY           SKY/WX    TMP DP  RH WIND       PRES   REMARKS
AMES           CLOUDY    57  50  77 N18       30.12R
ANKENY *       CLOUDY    57  52  82 N13G20    30.11R
CHARITON *     PTSUNNY   57  55  94 N16       30.09R FOG
DES MOINES     CLOUDY    59  51  75 N15       30.11R
GRINNELL*      CLOUDY    59  54  82 N17       30.08R FOG
KNOXVILLE *    CLOUDY    59  54  82 N17       30.07R
MARSHALLTOWN   CLOUDY    57  52  83 N18G25    30.09R
PELLA *        CLOUDY    59  57  94 N9G18     30.09R
PERRY *        CLOUDY    55  50  82 N20G25    30.14R
$$

IAZ004>006-015-016-023>025-035-036-301700-
   NORTH CENTRAL IOWA

CITY           SKY/WX    TMP DP  RH WIND       PRES   REMARKS
ALGONA *       CLOUDY    54  46  76 N16G23    30.19R
CLARION *      CLOUDY    55  50  82 N21       30.15R
ESTHERVILLE    PTSUNNY   53  44  71 N21G28    30.21R
FORT DODGE *   CLOUDY    54  45  71 N10G18    30.17R
MASON CITY     CLOUDY    55  48  77 N17G25    30.17R
FOREST CITY *  CLOUDY    52  46  82 N18G24    30.17R
IOWA FALLS *   CLOUDY    55  50  82 N15G25    30.13R
$$

IAZ007>011-017>019-026>030-037>042-050>054-066-301700-
   NORTHEAST IOWA

CITY           SKY/WX    TMP DP  RH WIND       PRES   REMARKS
CEDAR RAPIDS   CLOUDY    61  59  93 N17       30.03R
CHARLES CITY * CLOUDY    55  54  94 N15G25    30.13R
CLINTON *      CLOUDY    68  64  88 S8        30.00S
DECORAH *      CLOUDY    54  52  94 N13       30.11R
DUBUQUE        LGT RAIN  59  58  96 N15       30.03R FOG
MONTICELLO *   CLOUDY    63  61  94 N10       30.03R
OELWEIN *      CLOUDY    57  55  94 N22       30.09R
WATERLOO       CLOUDY    57  53  86 N14       30.09R
$$

IAZ064-065-067-068-078-301700-
   EAST CENTRAL IOWA

CITY           SKY/WX    TMP DP  RH WIND       PRES   REMARKS
DAVENPORT      LGT RAIN  68  65  90 SW5       29.99R FOG
IOWA CITY      CLOUDY    64  59  83 N14       30.03R
MT. PLEASANT * CLOUDY    66  64  94 NW8       30.00S
MUSCATINE *    CLOUDY    70  64  83 NW10      30.00R
QUAD CITIES    LGT RAIN  69  66  90 SW5       29.98R
$$

IAZ062-063-075>077-085>089-095>099-301700-
   SOUTHEAST IOWA

CITY           SKY/WX    TMP DP  RH WIND       PRES   REMARKS
BURLINGTON     LGT RAIN  67  66  97 NW8       29.99R FOG
FAIRFIELD *    CLOUDY    64  61  88 N12       30.02S
FORT MADISON * CLOUDY    64  64 100 NW9       30.01R FOG
OSKALOOSA *    CLOUDY    61  57  88 N16G22    30.05R
CENTERVILLE *  CLOUDY    59  59 100 NW14      30.08R
OTTUMWA        CLOUDY    61  58  90 N15       30.05R
WASHINGTON *   CLOUDY    66  63  88 N14       30.02S
$$

ABBREVIATIONS USED IN REMARKS
   TC - TEMPERATURES IN CELSIUS
  WCI - WIND CHILL INDEX
   HX - HEAT INDEX
  VSB - VISIBILITY
$$



USA.gov is the U.S. government's official web portal to all federal, state and local government web resources and services.